Regional Weather Roundup
Issued by NWS

Home | Current Version | Previous Version | Graphics & Text | Print | Product List | Glossary On
Versions: 1 2 3 4 5 6 7 8 9 10 11 12 13 14 15 16 17 18 19 20 21 22 23 24 25 26 27 28
000
ASUS45 KSLC 301810
RWRUT

UTAH REGIONAL WEATHER ROUNDUP
NATIONAL WEATHER SERVICE SALT LAKE CITY UT
1200 PM MDT FRI SEP 30 2016

UTZ001>011-023>025-301900-

NORTHERN UTAH

CITY           SKY/WX    TMP DP  RH WIND       PRES   REMARKS
BRIGHAM CITY     N/A     72  49  43 SW15      30.21S
HILL AFB       SUNNY     71  50  48 SW13      30.23F
LOGAN          MOSUNNY   62  52  69 N5        30.22S
OGDEN          MOSUNNY   72  50  45 S17       30.21F
PROVO AIRPORT  MOSUNNY   66  52  59 VRB5      30.26F
SALT LAKE CITY PTSUNNY   72  50  45 S13       30.20F
VERNAL         MOSUNNY   63  54  72 SE8       30.31F
WENDOVER       SUNNY     68  46  45 E7        30.20S
HEBER CITY     CLOUDY    61  45  55 SW8       30.30F
WEST JORDAN    PTSUNNY   70  49  47 S18G24    30.24S

$$

UTZ012>022-026-027-301900-

SOUTHERN/CENTRAL UTAH

CITY           SKY/WX    TMP DP  RH WIND       PRES   REMARKS
BLANDING       PTSUNNY   63  52  67 CALM      30.43F
BRYCE CANYON   MOSUNNY   59  44  57 S7        30.42F
CEDAR CITY     MOSUNNY   72  49  44 SW13      30.29F
DELTA          SUNNY     72  45  37 S9G16     30.24F
MILFORD        SUNNY     72  49  44 S18       30.26F
MOAB/CYNLANDS  CLOUDY    67  54  63 CALM      30.28F
PRICE          CLOUDY    61  51  70 CALM      30.35F
ST GEORGE      MOCLDY    79  54  41 E9        30.21F

$$

REGIONAL REPORTS     COLORADO/ARIZONA

CITY           SKY/WX    TMP DP  RH WIND       PRES   REMARKS
CRAIG, CO      PTSUNNY   64  47  53 W7        30.34F
GRAND JUNCTION CLOUDY    66  54  65 W5        30.30F
RIFLE          CLOUDY    65  53  65 CALM      30.33F
MONTROSE       CLOUDY    64  50  60 CALM      30.35F
CORTEZ         SUNNY     65  50  58 SW5       30.34F
PAGE, AZ       PTSUNNY   69  56  62 VRB6      30.28F
GRAND CANYON   MOSUNNY   63  47  55 W8        30.40S
KINGMAN        MOSUNNY   81  51  35 E13       30.19F
FLAGSTAFF      MOSUNNY   64  48  56 SW8       30.39F

$$

REGIONAL REPORTS    NEVADA/IDAHO/WYOMING

CITY           SKY/WX    TMP DP  RH WIND       PRES   REMARKS
LAS VEGAS, NV  MOSUNNY   83  46  27 CALM      30.11F
ELY            SUNNY     69  41  36 MISG      30.29F
ELKO             N/A     71  43  36 SW3       30.19F
POCATELLO, ID  NOT AVBL
BURLEY         SUNNY     71  52  50 E3        30.13F
EVANSTON, WY   CLOUDY    62  43  49 SW12      30.34F
ROCK SPRINGS   SUNNY     65  42  43 W14       30.32F

$$




USA.gov is the U.S. government's official web portal to all federal, state and local government web resources and services.